Flag for Germany Weather past 2 weeks in Alsfeld, Hesse, Germany

Now
66 °F

Overcast.


Feels Like: 66 °F
Forecast: 51 / 62 °F
Wind: 6 mph from Southwest

Location: Fritzlar

Current Time: Aug 30, 2014 at 4:54:21 PM

Latest Report: Aug 30, 2014 at 4:00 PM


Visibility: 25 mi

Pressure: 30.03 "Hg

Humidity: 68%

Dew point: 55 °F

Location of AlsfeldLocation

Historic Weather in Alsfeld — Graph

°F

Alsfeld temperature yesterday

Maximum temperature yesterday: 72 °F (at 5:00 PM)
Minimum temperature yesterday: 59 °F (at 2:00 AM)
Average temperature yesterday: 64 °F

Past Weeks' High & Low Weather Summary

 TemperatureHumidityPressure
High72 °F (Aug 28, 5:00 PM)98% (Aug 25, 8:00 AM)30.11 "Hg (Aug 25, 8:00 AM)
Low42 °F (Aug 28, 5:00 AM)37% (Aug 18, 5:00 PM)29.69 "Hg (Aug 18, 3:00 PM)
Average57 °F77%29.95 "Hg
* Reported Aug 15 4:00 PM — Aug 30 3:00 PM, Alsfeld, Weather by CustomWeather, © 2014

Note: Actual official high and low records may vary slightly from our data, if they occured in-between our weather recording intervals... More about our weather records

Advertising

Alsfeld weather history for previous 24 hours

 ConditionsComfort  
Time TempWeatherWind HumidityBarometerVisibility
3:00 PM
Aug 30
66 °FOvercast.5 mph67%30.04 "Hg25 mi
2:00 PM66 °FOvercast.3 mph68%30.04 "Hg25 mi
1:00 PM67 °FOvercast.5 mph66%30.04 "Hg19 mi
12:00 PM65 °FPartly sunny.5 mph72%30.05 "Hg16 mi
11:00 AM62 °FPartly sunny.5 mph82%30.06 "Hg16 mi
10:00 AM59 °FLight rain. Overcast.3 mph89%30.07 "Hg16 mi
9:00 AM57 °FOvercast.5 mph92%30.06 "Hg16 mi
8:00 AM56 °FLow clouds.3 mph97%30.06 "Hg12 mi
7:00 AM52 °FFog.1 mph98%30.06 "Hg2 mi
6:00 AM52 °FFog.2 mph98%30.05 "Hg1 mi
5:00 AM53 °FFog.1 mph98%30.06 "Hg2 mi
4:00 AM54 °FFog.1 mph98%30.05 "Hg0 mi
3:00 AM56 °FPassing clouds.N/A95%30.05 "Hg12 mi
2:00 AM55 °FPassing clouds.N/A96%30.05 "Hg12 mi
1:00 AM56 °FOvercast.2 mph95%30.05 "Hg12 mi
12:00 AM60 °FOvercast.1 mph96%30.04 "Hg12 mi
9:00 PM
Aug 29
62 °FLow clouds.1 mph95%30.01 "Hg9 mi
8:00 PM63 °FLow clouds.1 mph90%30.01 "Hg12 mi
7:00 PM62 °FSprinkles. Overcast.2 mph91%30.01 "Hg5 mi
6:00 PM62 °FSprinkles. Overcast.2 mph92%29.99 "Hg9 mi
5:00 PM72 °FOvercast.5 mph55%29.97 "Hg25 mi
4:00 PM71 °FPartly sunny.5 mph61%29.98 "Hg25 mi
Weather by CustomWeather, © 2014

See weather overviewHow to use our weather pages